This demonstration page uses our WeatherBlox Daily Observations layout. Learn more.

Left ArrowRight Arrow

Hourly Observations for June 4, 2021

Temp ( °F °C ) Dew Point ( °F °C ) Humidity (%) Winds ( mph kmh ) Pressure ( in mb ) Visibility ( mi km ) Precip ( " mm )
12:53 am 00:53 Partly Cloudy 70 21.1 66 18.9 87 87 Calm 30.02 1017 10 16 0.00 0.00
1:53 am 01:53 Clear 68 20 66 18.9 93 93 Calm 30.01 1016 10 16 0.00 0.00
2:53 am 02:53 Clear 67 19.4 65 18.3 93 93 Calm 29.99 1016 10 16 0.00 0.00
3:53 am 03:53 Clear 67 19.4 65 18.3 93 93 Calm 29.99 1016 10 16 0.00 0.00
4:53 am 04:53 Cloudy 66 18.9 65 18.3 96 96 Calm 30.01 1016 10 16 0.00 0.00
5:53 am 05:53 Clear 67 19.4 65 18.3 93 93 Calm 30.01 1016 10 16 0.00 0.00
6:53 am 06:53 Sunny 66 18.9 65 18.3 96 96 Calm 30.03 1017 10 16 0.00 0.00
7:06 am 07:06 Mostly Sunny 67 19.4 65 18.3 93 93 Calm 30.03 1017 10 16 0.00 0.00
7:20 am 07:20 Mostly Cloudy 67 19.4 65 18.3 93 93 Calm 30.03 1017 10 16 0.00 0.00
7:32 am 07:32 Cloudy 68 20 66 18.9 93 93 Calm 30.04 1017 10 16 0.00 0.00
7:53 am 07:53 Cloudy 69 20.6 67 19.4 93 93 Calm 30.04 1017 10 16 0.00 0.00
8:27 am 08:27 Partly Cloudy 70 21.1 67 19.4 90 90 Calm 30.04 1017 10 16 0.00 0.00
8:53 am 08:53 Sunny 71 21.7 66 18.9 84 84 Calm 30.06 1018 10 16 0.00 0.00
9:53 am 09:53 Sunny 76 24.4 67 19.4 74 74 VRB 5 7 30.06 1018 10 16 0.00 0.00
10:53 am 10:53 Sunny 80 26.7 66 18.9 62 62 VRB 3 6 30.06 1018 10 16 0.00 0.00
11:53 am 11:53 Mostly Sunny 82 27.8 64 17.8 55 55 VRB 3 6 30.05 1018 10 16 0.00 0.00
12:53 pm 12:53 Mostly Cloudy 82 27.8 63 17.2 53 53 Calm 30.04 1017 10 16 0.00 0.00
1:53 pm 13:53 Mostly Sunny 84 28.9 62 16.7 48 48 VRB 3 6 30.03 1017 10 16 0.00 0.00
2:53 pm 14:53 Sunny 85 29.4 61 16.1 45 45 NNW 8 13 30.01 1016 10 16 0.00 0.00
3:53 pm 15:53 Sunny 84 28.9 60 15.6 44 44 W 6 9 30.00 1016 10 16 0.00 0.00
4:42 pm 16:42 Mostly Sunny 85 29.4 60 15.6 43 43 W 6 9 29.98 1015 10 16 0.00 0.00
4:53 pm 16:53 Sunny 84 28.9 60 15.6 44 44 WNW 3 6 30.00 1016 10 16 0.00 0.00
5:53 pm 17:53 Sunny 84 28.9 60 15.6 44 44 VRB 5 7 29.99 1016 10 16 0.00 0.00
6:53 pm 18:53 Sunny 83 28.3 59 15 44 44 W 7 11 29.99 1016 10 16 0.00 0.00
7:53 pm 19:53 Sunny 81 27.2 61 16.1 51 51 WNW 5 7 30.00 1016 10 16 0.00 0.00
8:53 pm 20:53 Clear 80 26.7 62 16.7 54 54 Calm 30.00 1016 10 16 0.00 0.00
9:53 pm 21:53 Clear 77 25 64 17.8 64 64 Calm 30.02 1017 10 16 0.00 0.00
10:53 pm 22:53 Mostly Clear 74 23.3 65 18.3 74 74 Calm 30.03 1017 10 16 0.00 0.00
11:53 pm 23:53 Mostly Cloudy 74 23.3 66 18.9 76 76 Calm 30.05 1018 10 16 0.00 0.00

Powered by AerisWeather